Regional Weather Roundup
Issued by NWS

Home | Current Version | Previous Version | Text Only | Print | Product List | Glossary On
Versions: 1 2 3 4 5 6 7 8 9 10 11 12 13 14 15 16 17 18 19 20 21 22 23 24 25 26 27 28 29 30 31 32 33 34 35 36 37 38 39 40 41 42 43 44 45 46 47 48 49 50
000
ASUS44 KMEG 010910
RWRTN
TENNESSEE HOURLY STATE WEATHER ROUNDUP
NATIONAL WEATHER SERVICE MEMPHIS TN
300 AM CST SUN MAR 01 2015

TNZ002-004-019-021-049-052-054-088>092-011000-
WEST TENNESSEE

CITY           SKY/WX    TMP DP  RH WIND       PRES   REMARKS
MEMPHIS INTL   CLOUDY    37  25  61 NE7       30.32F WCI  32
NWS MEMPHIS      N/A     36 N/A N/A MISG        N/A
JACKSON        CLOUDY    39  25  57 N5        30.34F
DYERSBURG      CLOUDY    34  16  47 NE6       30.37F WCI  29
UNION CITY     CLOUDY    32  25  74 CALM      30.35F
PARIS          CLOUDY    34  21  60 E7        30.35F WCI  28
LEXINGTON      CLOUDY    37  25  60 CALM      30.33F
SAVANNAH       CLOUDY    39  34  81 CALM      30.34F
$$

TNZ008-025-027-028-033-062-065-066-011000-
NORTH MIDDLE TENNESSEE

CITY           SKY/WX    TMP DP  RH WIND       PRES   REMARKS
NASHVILLE      MOCLDY    41  30  65 CALM      30.36S
CLARKSVILLE    CLOUDY    36  26  67 CALM      30.37S
SMYRNA         CLOUDY    39  32  76 E7        30.37S WCI  34
COOKEVILLE     MOCLDY    43  32  65 S7        30.36F
CROSSVILLE     CLOUDY    42  32  67 S9G17     30.37F
$$

TNZ061-075-076-078-094-096-097-011000-
SOUTH MIDDLE TENNESSEE

CITY           SKY/WX    TMP DP  RH WIND       PRES   REMARKS
FAYETTEVILLE   CLOUDY    45  34  65 S13         N/A
TULLAHOMA      MOCLDY    43  30  61 SE8       30.36F
WINCHESTER     MOCLDY    43  34  70 SE13      30.37F
MCMINNVILLE    CLEAR     43  34  70 VRB6      30.36F
COLUMBIA         N/A     48  37  66 S9        30.33S
SHELBYVILLE    CLOUDY    46  36  66 SE9       30.36F
$$

TNZ017-018-042-046-047-011000-
NORTHEAST TENNESSEE

CITY           SKY/WX    TMP DP  RH WIND       PRES   REMARKS
TRI CITIES     CLOUDY    34  26  72 CALM      30.42F
ELIZABETHTON   MOSUNNY   37  25  60 E5        30.41F WCI  34
$$

TNZ012-013-036-069-073-074-011000-
CENTRAL EAST TENNESSEE

CITY           SKY/WX    TMP DP  RH WIND       PRES   REMARKS
KNOXVILLE      PTCLDY    33  28  81 S3        30.42S
OAK RIDGE      CLOUDY    42  28  57 VRB3      30.43F
GATLINBURG     SUNNY     28  27  93 CALM      30.42S
MORRISTOWN     SUNNY     36  25  64 CALM      30.41F
$$

TNZ083-085-099-011000-
SOUTHEAST TENNESSEE

CITY           SKY/WX    TMP DP  RH WIND       PRES   REMARKS
CHATTANOOGA    CLOUDY    43  29  57 S7        30.44F
$$

SKY/WX REPORTED AS FAIR MEANS FEW OR NO CLOUDS BELOW
12 THOUSAND FEET.



USA.gov is the U.S. government's official web portal to all federal, state and local government web resources and services.